TRA2L EHRD-EDDH

Flight info

Callsign TRA2L
Flight time 0h 40m
Altitude 31000
Route ANDI2A ANDIK M105 RIBSO RIBS7A
Aircraft A21N/M-SDE2E3FGHIRWXY/LB1

Departure

Time 2026-05-06 11:55
Airport Rotterdam The Hague Airport (EHRD)

Arrival

Time 2026-05-06 12:35
Airport Hamburg Helmut Schmidt Airport (EDDH)
Time Latitude Longitude Altitude Speed Heading
2026-05-06 11:41 51.95114 4.43484 -15 ft 0 kts 327°
2026-05-06 11:50 51.95121 4.43477 1 ft 2 kts 327°
2026-05-06 11:50 51.95145 4.43463 1 ft 6 kts 354°
2026-05-06 11:51 51.95194 4.43493 1 ft 9 kts 352°
2026-05-06 11:51 51.95239 4.43405 1 ft 12 kts 275°
2026-05-06 11:51 51.95199 4.43287 1 ft 10 kts 235°
2026-05-06 11:51 51.95167 4.43209 2 ft 8 kts 237°
2026-05-06 11:52 51.95141 4.43131 1 ft 6 kts 244°
2026-05-06 11:52 51.95128 4.43089 2 ft 2 kts 244°
2026-05-06 11:52 51.95125 4.43077 1 ft 0 kts 244°
2026-05-06 11:52 51.95125 4.43076 1 ft 0 kts 244°
2026-05-06 11:53 51.95121 4.43065 3 ft 2 kts 244°
2026-05-06 11:53 51.95115 4.43045 1 ft 2 kts 245°
2026-05-06 11:53 51.95110 4.42992 1 ft 7 kts 269°
2026-05-06 11:53 51.95148 4.42914 1 ft 11 kts 328°
2026-05-06 11:54 51.95223 4.42877 2 ft 12 kts 28°
2026-05-06 11:54 51.95299 4.43052 2 ft 40 kts 57°
2026-05-06 11:54 51.95573 4.43739 1 ft 104 kts 57°
2026-05-06 11:54 51.96066 4.44974 130 ft 146 kts 57°
2026-05-06 11:55 51.96589 4.46287 1054 ft 134 kts 52°
2026-05-06 11:55 51.97070 4.47468 1809 ft 127 kts 52°
2026-05-06 11:55 51.97595 4.48694 2321 ft 137 kts 52°
2026-05-06 11:55 51.98153 4.49972 2842 ft 143 kts 56°
2026-05-06 11:56 51.98620 4.51635 2960 ft 183 kts 65°
2026-05-06 11:56 51.99153 4.53782 3018 ft 225 kts 65°
2026-05-06 11:56 51.99991 4.55993 3628 ft 237 kts 45°
2026-05-06 11:56 52.01268 4.57789 4387 ft 247 kts 34°
2026-05-06 11:57 52.02727 4.59311 5296 ft 251 kts 31°
2026-05-06 11:57 52.04187 4.60909 6187 ft 256 kts 35°
2026-05-06 11:57 52.05603 4.62720 6977 ft 263 kts 39°
2026-05-06 11:57 52.06992 4.64697 7807 ft 268 kts 41°
2026-05-06 11:58 52.07878 4.66037 8304 ft 272 kts 42°
2026-05-06 11:58 52.09714 4.68944 9345 ft 279 kts 41°
2026-05-06 11:58 52.11310 4.70768 10062 ft 284 kts 29°
2026-05-06 11:58 52.13084 4.72360 10391 ft 304 kts 27°
2026-05-06 11:59 52.15020 4.74018 10693 ft 324 kts 27°
2026-05-06 11:59 52.17075 4.75771 11036 ft 342 kts 26°
2026-05-06 11:59 52.19231 4.77624 11435 ft 358 kts 27°
2026-05-06 11:59 52.21479 4.79576 11856 ft 372 kts 27°
2026-05-06 12:00 52.23779 4.81592 12372 ft 378 kts 27°
2026-05-06 12:00 52.26095 4.83638 12677 ft 382 kts 27°
2026-05-06 12:00 52.28446 4.85729 12801 ft 386 kts 27°
2026-05-06 12:00 52.30797 4.87835 12851 ft 384 kts 27°
2026-05-06 12:01 52.32350 4.89228 12862 ft 384 kts 27°
2026-05-06 12:01 52.34700 4.91342 12973 ft 386 kts 27°
2026-05-06 12:01 52.37056 4.93464 13521 ft 387 kts 27°
2026-05-06 12:01 52.39426 4.95606 14147 ft 391 kts 27°
2026-05-06 12:02 52.42590 4.98458 14987 ft 396 kts 27°
2026-05-06 12:02 52.44224 4.99931 15408 ft 398 kts 27°
2026-05-06 12:02 52.46656 5.02128 16025 ft 402 kts 28°
2026-05-06 12:02 52.49125 5.04362 16643 ft 405 kts 28°
2026-05-06 12:03 52.51604 5.06610 17244 ft 409 kts 28°
2026-05-06 12:03 52.54100 5.08881 17845 ft 413 kts 28°
2026-05-06 12:03 52.56622 5.11182 18385 ft 416 kts 28°
2026-05-06 12:03 52.59134 5.13484 18833 ft 421 kts 29°
2026-05-06 12:04 52.61708 5.15847 19281 ft 426 kts 28°
2026-05-06 12:04 52.64306 5.18235 19731 ft 430 kts 28°
2026-05-06 12:04 52.66934 5.20649 20178 ft 435 kts 28°
2026-05-06 12:04 52.69594 5.23093 20609 ft 439 kts 28°
2026-05-06 12:05 52.72271 5.25565 21065 ft 443 kts 30°
2026-05-06 12:05 52.74685 5.28779 21444 ft 449 kts 49°
2026-05-06 12:05 52.76415 5.33065 21927 ft 450 kts 66°
2026-05-06 12:05 52.77547 5.37896 22330 ft 454 kts 72°
2026-05-06 12:06 52.78518 5.42874 22780 ft 456 kts 74°
2026-05-06 12:06 52.79439 5.47853 23221 ft 459 kts 74°
2026-05-06 12:06 52.80365 5.52923 23603 ft 463 kts 74°
2026-05-06 12:06 52.83623 5.70231 24963 ft 470 kts 73°
2026-05-06 12:07 52.86457 5.84582 26082 ft 475 kts 73°
2026-05-06 12:07 52.90650 6.05205 28307 ft 466 kts 73°
2026-05-06 12:07 52.94785 6.25328 30472 ft 456 kts 73°
2026-05-06 12:07 52.97848 6.40295 30855 ft 449 kts 73°
2026-05-06 12:08 53.02822 6.64718 30878 ft 451 kts 73°
2026-05-06 12:08 53.04826 6.74618 30879 ft 452 kts 73°
2026-05-06 12:09 53.06813 6.84476 30881 ft 451 kts 73°
2026-05-06 12:09 53.08806 6.94396 30877 ft 452 kts 73°
2026-05-06 12:10 53.10796 7.04355 30786 ft 453 kts 73°
2026-05-06 12:10 53.11771 7.09249 30421 ft 450 kts 73°
2026-05-06 12:10 53.12753 7.14187 29702 ft 446 kts 73°
2026-05-06 12:11 53.13719 7.19072 28848 ft 442 kts 73°
2026-05-06 12:11 53.14671 7.23916 28020 ft 438 kts 73°
2026-05-06 12:11 53.15612 7.28719 27238 ft 434 kts 73°
2026-05-06 12:11 53.16543 7.33479 26466 ft 430 kts 73°
2026-05-06 12:12 53.17463 7.38188 25745 ft 426 kts 73°
2026-05-06 12:12 53.18375 7.42865 25034 ft 422 kts 73°
2026-05-06 12:12 53.19276 7.47500 24349 ft 418 kts 73°
2026-05-06 12:12 53.20168 7.52093 23658 ft 414 kts 73°
2026-05-06 12:13 53.21051 7.56656 22927 ft 411 kts 73°
2026-05-06 12:13 53.21912 7.61103 22274 ft 405 kts 73°
2026-05-06 12:13 53.22771 7.65554 21582 ft 400 kts 73°
2026-05-06 12:13 53.23616 7.69956 20925 ft 395 kts 73°
2026-05-06 12:14 53.24449 7.74301 20270 ft 390 kts 73°
2026-05-06 12:14 53.25271 7.78594 19612 ft 386 kts 73°
2026-05-06 12:14 53.26085 7.82854 18981 ft 382 kts 73°
2026-05-06 12:14 53.26890 7.87073 18575 ft 379 kts 73°
2026-05-06 12:15 53.27675 7.91191 18290 ft 365 kts 73°
2026-05-06 12:15 53.28431 7.95172 17975 ft 355 kts 73°
2026-05-06 12:15 53.29172 7.99084 17646 ft 353 kts 73°
2026-05-06 12:15 53.29911 8.03001 17323 ft 352 kts 73°
2026-05-06 12:16 53.30644 8.06904 17004 ft 350 kts 73°
2026-05-06 12:16 53.31363 8.10722 16686 ft 347 kts 73°
2026-05-06 12:16 53.32127 8.14544 16377 ft 345 kts 71°
2026-05-06 12:16 53.32928 8.18322 16121 ft 344 kts 71°
2026-05-06 12:17 53.33751 8.22082 15860 ft 342 kts 70°
2026-05-06 12:17 53.34585 8.25796 15600 ft 340 kts 70°
2026-05-06 12:17 53.35421 8.29479 15346 ft 338 kts 70°
2026-05-06 12:17 53.36258 8.33145 15081 ft 337 kts 70°
2026-05-06 12:18 53.37098 8.36798 14749 ft 334 kts 70°
2026-05-06 12:18 53.37933 8.40425 14282 ft 332 kts 70°
2026-05-06 12:18 53.38762 8.44015 13791 ft 329 kts 69°
2026-05-06 12:18 53.39613 8.47550 13237 ft 325 kts 68°
2026-05-06 12:19 53.40475 8.50989 12645 ft 323 kts 67°
2026-05-06 12:19 53.41360 8.54427 12052 ft 320 kts 66°
2026-05-06 12:19 53.42253 8.57838 11466 ft 317 kts 66°
2026-05-06 12:19 53.43142 8.61198 11135 ft 310 kts 65°
2026-05-06 12:20 53.44000 8.64415 10984 ft 294 kts 65°
2026-05-06 12:20 53.44817 8.67457 10908 ft 281 kts 65°
2026-05-06 12:20 53.45622 8.70440 10895 ft 282 kts 65°
2026-05-06 12:20 53.46435 8.73443 10887 ft 281 kts 65°
2026-05-06 12:21 53.47230 8.76388 10880 ft 281 kts 65°
2026-05-06 12:21 53.48037 8.79382 10885 ft 282 kts 65°
2026-05-06 12:21 53.48840 8.82383 10897 ft 281 kts 68°
2026-05-06 12:21 53.49250 8.85567 10793 ft 281 kts 87°
2026-05-06 12:22 53.49243 8.88839 10452 ft 280 kts 92°
2026-05-06 12:22 53.49142 8.92109 10072 ft 279 kts 93°
2026-05-06 12:22 53.49003 8.95328 9383 ft 276 kts 93°
2026-05-06 12:22 53.48842 8.98512 8724 ft 271 kts 94°
2026-05-06 12:23 53.48679 9.01654 8301 ft 267 kts 94°
2026-05-06 12:23 53.48513 9.04734 7889 ft 264 kts 94°
2026-05-06 12:23 53.48346 9.07778 7451 ft 260 kts 94°
2026-05-06 12:23 53.48181 9.10788 7027 ft 257 kts 94°
2026-05-06 12:24 53.48019 9.13766 6588 ft 255 kts 94°
2026-05-06 12:24 53.47863 9.16671 6205 ft 252 kts 94°
2026-05-06 12:24 53.47708 9.19586 5843 ft 250 kts 94°
2026-05-06 12:24 53.47552 9.22491 5397 ft 250 kts 94°
2026-05-06 12:25 53.47400 9.25384 5166 ft 244 kts 94°
2026-05-06 12:25 53.47254 9.28133 5068 ft 228 kts 94°
2026-05-06 12:25 53.47113 9.30739 5036 ft 224 kts 94°
2026-05-06 12:25 53.46974 9.33341 5018 ft 223 kts 94°
2026-05-06 12:26 53.46836 9.35931 5005 ft 224 kts 94°
2026-05-06 12:26 53.46702 9.38535 4996 ft 223 kts 94°
2026-05-06 12:26 53.46563 9.41127 5057 ft 223 kts 94°
2026-05-06 12:26 53.46422 9.43735 5092 ft 224 kts 94°
2026-05-06 12:27 53.46286 9.46334 5137 ft 224 kts 94°
2026-05-06 12:27 53.46148 9.48948 5109 ft 225 kts 94°
2026-05-06 12:27 53.46008 9.51536 5072 ft 222 kts 94°
2026-05-06 12:27 53.45874 9.54122 5066 ft 224 kts 94°
2026-05-06 12:28 53.45739 9.56717 5037 ft 222 kts 94°
2026-05-06 12:28 53.45603 9.59277 5029 ft 224 kts 94°
2026-05-06 12:28 53.45465 9.61878 5017 ft 222 kts 94°
2026-05-06 12:28 53.45441 9.64457 4948 ft 223 kts 75°
2026-05-06 12:29 53.46172 9.66721 4824 ft 225 kts 50°
2026-05-06 12:29 53.47267 9.68636 4488 ft 227 kts 47°
2026-05-06 12:29 53.48378 9.70471 4163 ft 221 kts 46°
2026-05-06 12:29 53.49467 9.72234 3843 ft 214 kts 46°
2026-05-06 12:30 53.50522 9.73927 3548 ft 205 kts 46°
2026-05-06 12:30 53.51510 9.75585 3296 ft 195 kts 50°
2026-05-06 12:30 53.52376 9.77248 3105 ft 182 kts 51°
2026-05-06 12:30 53.53174 9.78841 2852 ft 176 kts 52°
2026-05-06 12:31 53.53942 9.80403 2567 ft 170 kts 52°
2026-05-06 12:31 53.54682 9.81913 2343 ft 164 kts 51°
2026-05-06 12:31 53.55396 9.83350 2175 ft 157 kts 51°
2026-05-06 12:31 53.56081 9.84740 2000 ft 151 kts 51°
2026-05-06 12:32 53.56733 9.86055 1858 ft 147 kts 51°
2026-05-06 12:32 53.57382 9.87380 1650 ft 145 kts 50°
2026-05-06 12:32 53.58014 9.88668 1406 ft 139 kts 50°
2026-05-06 12:32 53.58624 9.89881 1116 ft 132 kts 50°
2026-05-06 12:33 53.59211 9.91073 933 ft 134 kts 50°
2026-05-06 12:33 53.59803 9.92274 711 ft 131 kts 49°
2026-05-06 12:33 53.60396 9.93446 546 ft 135 kts 50°
2026-05-06 12:33 53.60981 9.94646 361 ft 131 kts 50°
2026-05-06 12:34 53.61566 9.95836 207 ft 134 kts 51°
2026-05-06 12:34 53.62154 9.97041 60 ft 129 kts 51°
2026-05-06 12:34 53.62668 9.98082 47 ft 102 kts 50°
2026-05-06 12:34 53.63075 9.98894 49 ft 80 kts 50°
2026-05-06 12:35 53.63355 9.99467 51 ft 38 kts 51°
2026-05-06 12:35 53.63455 9.99668 50 ft 20 kts 50°
2026-05-06 12:35 53.63530 9.99822 51 ft 8 kts 51°
2026-05-06 12:35 53.63552 9.99869 51 ft 13 kts 51°
2026-05-06 12:36 53.63585 9.99990 52 ft 10 kts 85°
2026-05-06 12:36 53.63558 10.00091 48 ft 10 kts 135°
2026-05-06 12:36 53.63527 10.00135 50 ft 4 kts 140°
2026-05-06 12:36 53.63520 10.00145 51 ft 0 kts 140°
2026-05-06 12:37 53.63519 10.00147 49 ft 0 kts 140°
2026-05-06 12:37 53.63516 10.00150 49 ft 0 kts 140°
2026-05-06 12:38 53.63514 10.00153 49 ft 4 kts 140°
2026-05-06 12:38 53.63467 10.00210 52 ft 12 kts 149°
2026-05-06 12:38 53.63386 10.00229 51 ft 7 kts 183°
2026-05-06 12:38 53.63361 10.00230 46 ft 1 kts 178°
2026-05-06 12:39 53.63350 10.00233 48 ft 3 kts 170°
2026-05-06 12:39 53.63331 10.00282 51 ft 5 kts 104°
2026-05-06 12:39 53.63331 10.00313 51 ft 2 kts 88°
2026-05-06 12:39 53.63333 10.00352 51 ft 0 kts 87°